Powrót do katalogu

CZ-6A DEB

AktywnySSO
NORAD 55544·DEBRIS·🇨🇳 China

Wystrzelony Nov 11, 2022 z Taiyuan Satellite Launch Center

Loading…

Następne Przeloty (najbliższe 24 godziny)

TLE

ŚwieżeSource: Space-Track

Epoka: Sep 14, 2026, 11:49 UTC

1 55544U 22151YS  26257.49257963  .00000792  00000-0  48086-3 0  9998
2 55544  98.9570 264.2364 0079438 126.5018 234.3502 14.07605350191397

Śledź CZ-6A DEB w czasie rzeczywistym z AllMySat

Download on the App Store